Location: Newark
(34.0131°N, 4.3314°W)
Time: 22:38:30
(UTC+00:00)

SR - Pass Details

Date: 22 October 2019
Orbit: 574 x 882 km, 66.7° (Epoch: 18 November)

Event Time Altitude Azimuth Distance (km) Brightness Sun altitude
Rises 05:27:07 0° 351° (N) 3,461 ? -13.3°
Reaches altitude 10° 05:31:00 10° 17° (NNE) 2,540 ? -12.5°
Maximum altitude 05:33:59 14° 47° (NE) 2,266 ? -11.8°
Drops below altitude 10° 05:36:57 10° 77° (ENE) 2,533 ? -11.2°
Sets 05:40:47 0° 102° (ESE) 3,443 ? -10.4°
